sat.trackr.live / text

‹ back to catalog

STARLINK-36607

NORAD 67620 · 2026-020D

PAYLOAD ACTIVE UNKNOWN

§ Identity

Operator
Country
US
Launch date
2026-01-30
Launch site
AFETR
Launch vehicle
Mass (kg)
RCS (m²)

Purposes: comms

External: N2YO · Heavens-Above · Gunter

§ Orbital elements

Epoch: 2026-09-19T08:07:30.557568Z

Period
94.27 min
Inclination
43.0019°
Eccentricity
0.0001585
Mean motion
15.27601171 rev/d
Perigee alt
481.9 km
Apogee alt
484.1 km
Semi-major
6,861.1 km
B*
4.5857e-4
RAAN
125.8049°
Arg perigee
269.7074°
Mean anomaly
90.3596°
Rev number
3,573

§ Raw data

STARLINK-366071 67620U 26020D   26262.33854812  .00012386  00000+0  45857-3 0  99942 67620  43.0019 125.8049 0001585 269.7074  90.3596 15.27601171 35734

JSON: /api/v1/satellites/67620 · /tle

For live sub-satellite position, see the globe view (requires WebGL).

§ Visibility from observer

Set your observer location to see the next 7 days of passes ≥ 10°. The values pass through the URL so the page stays shareable.

No JS? Fill the form by hand. The geolocation button needs JavaScript.